Location: Hawks Ness
(60.2333°N, 1.1667°W)
Time: 22:17:36
(UTC+00:00)

Cosmos 1025 Rocket - Pass Details

Date: 22 October 2019
Orbit: 595 x 617 km, 82.5° (Epoch: 17 November)

Event Time Altitude Azimuth Distance (km) Brightness Sun altitude
Exits shadow 03:54:16 57° 164° (SSE) 708 3.2 -23.5°
Maximum altitude 03:55:01 74° 101° (E) 629 3.1 -23.4°
Drops below altitude 10° 03:59:20 10° 17° (NNE) 1,957 6.1 -22.9°
Sets 04:01:34 0° 15° (NNE) 2,868 6.9 -22.7°
